sat.trackr.live / text

‹ back to catalog

STARLINK-11181 [DTC]

NORAD 60059 · 2024-113A

PAYLOAD ACTIVE UNKNOWN

§ Identity

Operator
Country
US
Launch date
2024-06-19
Launch site
AFWTR
Launch vehicle
Mass (kg)
RCS (m²)

Purposes: comms

External: N2YO · Heavens-Above · Gunter

§ Orbital elements

Epoch: 2026-09-20T20:42:50.709888Z

Period
91.74 min
Inclination
53.1593°
Eccentricity
0.0001093
Mean motion
15.69709915 rev/d
Perigee alt
359.0 km
Apogee alt
360.5 km
Semi-major
6,737.9 km
B*
2.2071e-6
RAAN
309.2080°
Arg perigee
71.6160°
Mean anomaly
288.4976°
Rev number
13,021

§ Raw data

STARLINK-11181 [DTC]1 60059U 24113A   26263.86308692 -.00000321  00000+0  22071-5 0  99952 60059  53.1593 309.2080 0001093  71.6160 288.4976 15.69709915130217

JSON: /api/v1/satellites/60059 · /tle

For live sub-satellite position, see the globe view (requires WebGL).

§ Visibility from observer

Set your observer location to see the next 7 days of passes ≥ 10°. The values pass through the URL so the page stays shareable.

No JS? Fill the form by hand. The geolocation button needs JavaScript.